Location: Passau
(48.5830°N, 13.4830°E)
Time: 20:47:12
(UTC+02:00)

Vanguard 3 - Pass Details

Date: 25 May 2024
Orbit: 509 x 3231 km, 33.3° (Epoch: 16 June)

Event Time Altitude Azimuth Distance (km) Brightness Sun altitude
Rises 19:36:44 0° 230° (SW) 3,849 11.1 10.4°
Reaches altitude 10° 19:39:19 10° 220° (SW) 3,193 10.5 10.0°
Maximum altitude 19:46:27 32° 161° (SSE) 2,666 9.5 8.9°
Drops below altitude 10° 19:57:42 10° 106° (ESE) 5,110 10.6 7.2°
Sets 20:03:09 0° 99° (E) 6,532 11.1 6.4°
